FW4844 Weather Reports


Display with metric or nautical units.
time (UTC)temp
F
wind
direction
speed
MPH
gust
MPH
rain 1hr
in
rain 24hr
in
rain mn
in
humidity
%
barometer
mb
20260508120828 39 247 3.0 8.0 0.00 0.00 0.00 70 1007.3
20260508120329 38 201 4.0 10.0 0.00 0.00 0.00 73 1007.3
20260508115830 38 263 4.0 10.0 0.00 0.00 0.00 71 1007.3
20260508115554 37 261 5.0 10.0 0.00 0.00 0.00 73 1007.3
20260508114823 37 215 5.0 10.0 0.00 0.00 0.00 72 1007.4
20260508114317 37 235 4.0 9.0 0.00 0.00 0.00 75 1007.4
20260508113807 36 229 4.0 9.0 0.00 0.00 0.00 77 1007.3
20260508113304 36 236 3.0 7.0 0.00 0.00 0.00 77 1007.3
20260508112755 35 266 3.0 7.0 0.00 0.00 0.00 76 1007.4
20260508112245 35 232 2.0 5.0 0.00 0.00 0.00 77 1007.4
20260508111739 35 230 2.0 4.0 0.00 0.00 0.00 78 1007.2
20260508111232 34 252 2.0 4.0 0.00 0.00 0.00 81 1007.2
20260508110723 33 251 2.0 4.0 0.00 0.00 0.00 83 1007.2
20260508110216 33 250 2.0 5.0 0.00 0.00 0.00 84 1007.0
20260508105711 32 254 2.0 5.0 0.00 0.00 0.00 86 1007.0
20260508105201 31 250 1.0 3.0 0.00 0.00 0.00 87 1007.0
20260508104655 31 250 1.0 3.0 0.00 0.00 0.00 88 1006.9
20260508104149 31 250 2.0 3.0 0.00 0.00 0.00 88 1006.9
20260508103902 31 250 2.0 5.0 0.00 0.00 0.00 89 1006.9
20260508103349 30 250 3.0 6.0 0.00 0.00 0.00 90 1006.9
20260508102627 30 259 2.0 6.0 0.00 0.00 0.00 91 1006.8
20260508102117 29 261 2.0 4.0 0.00 0.00 0.00 91 1006.8
20260508101610 29 264 2.0 6.0 0.00 0.00 0.00 91 1006.7
20260508101105 29 260 2.0 6.0 0.00 0.00 0.00 91 1006.7
20260508100555 29 259 2.0 4.0 0.00 0.00 0.00 90 1006.7
20260508100049 29 257 2.0 4.0 0.00 0.00 0.00 90 1006.6
20260508095543 29 256 3.0 4.0 0.00 0.00 0.00 90 1006.6
20260508095033 29 254 3.0 4.0 0.00 0.00 0.00 90 1006.5
20260508094527 29 261 3.0 6.0 0.00 0.00 0.00 90 1006.4
20260508094022 29 261 2.0 6.0 0.00 0.00 0.00 90 1006.4
20260508093511 29 258 2.0 4.0 0.00 0.00 0.00 90 1006.4
20260508093005 30 256 2.0 4.0 0.00 0.00 0.00 89 1006.5
20260508092459 30 255 2.0 5.0 0.00 0.00 0.00 90 1006.4
20260508091949 30 249 2.0 6.0 0.00 0.00 0.00 90 1006.5
20260508091443 30 261 3.0 6.0 0.00 0.00 0.00 90 1006.4
20260508090937 30 263 3.0 7.0 0.00 0.00 0.00 90 1006.4
20260508090427 30 257 4.0 7.0 0.00 0.00 0.00 90 1006.4
20260508085921 30 261 4.0 7.0 0.00 0.00 0.00 90 1006.4
20260508085415 30 244 4.0 7.0 0.00 0.00 0.00 91 1006.4
20260508084905 29 250 4.0 7.0 0.00 0.00 0.00 91 1006.4
20260508084359 29 240 4.0 7.0 0.00 0.00 0.00 91 1006.2
20260508083853 29 250 3.0 7.0 0.00 0.00 0.00 91 1006.2
20260508083605 29 260 3.0 6.0 0.00 0.00 0.00 90 1006.1
20260508082837 29 257 3.0 6.0 0.00 0.00 0.00 90 1006.2
20260508082331 29 267 2.0 4.0 0.00 0.00 0.00 90 1006.2
20260508081821 30 267 2.0 4.0 0.00 0.00 0.00 90 1006.1
20260508081315 30 270 2.0 4.0 0.00 0.00 0.00 90 1006.1
20260508080810 30 261 2.0 6.0 0.00 0.00 0.00 89 1006.1
20260508080259 31 263 3.0 6.0 0.00 0.00 0.00 89 1006.1
20260508075753 31 265 3.0 8.0 0.00 0.00 0.00 88 1006.0
20260508075247 31 282 3.0 8.0 0.00 0.00 0.00 88 1006.0
20260508075000 31 273 3.0 6.0 0.00 0.00 0.00 88 1005.9
20260508074234 31 259 3.0 6.0 0.00 0.00 0.00 88 1005.9
20260508073733 31 257 3.0 7.0 0.00 0.00 0.00 88 1005.9
20260508073455 31 252 3.0 7.0 0.00 0.00 0.00 89 1005.8
20260508072728 31 254 3.0 5.0 0.00 0.00 0.00 89 1005.8
20260508072228 31 240 3.0 7.0 0.00 0.00 0.00 89 1005.8
20260508071727 31 232 3.0 7.0 0.00 0.00 0.00 89 1005.9
20260508071228 31 242 3.0 5.0 0.00 0.00 0.00 89 1005.9
20260508070728 31 247 2.0 5.0 0.00 0.00 0.00 89 1005.9
20260508070231 31 246 3.0 7.0 0.00 0.00 0.00 89 1005.9
20260508065734 31 249 3.0 7.0 0.00 0.00 0.00 88 1005.9
20260508065452 31 245 3.0 5.0 0.00 0.00 0.00 88 1005.9
20260508064728 31 250 3.0 7.0 0.00 0.00 0.00 88 1005.9
20260508064228 31 236 3.0 7.0 0.00 0.00 0.00 89 1005.9
20260508063728 31 254 3.0 5.0 0.00 0.00 0.00 89 1006.0
20260508063448 31 248 3.0 6.0 0.00 0.00 0.00 90 1006.0
20260508062728 31 247 3.0 6.0 0.00 0.00 0.00 90 1006.0
20260508061724 31 246 3.0 5.0 0.00 0.00 0.00 89 1006.0
20260508061222 31 248 2.0 5.0 0.00 0.00 0.00 88 1006.0
20260508060722 31 254 2.0 4.0 0.00 0.00 0.00 87 1006.0
20260508060222 31 253 2.0 4.0 0.00 0.00 0.00 87 1006.1
20260508055721 31 254 2.0 5.0 0.00 0.00 0.00 86 1006.1
20260508055221 31 254 3.0 7.0 0.00 0.00 0.00 86 1006.2
20260508054723 31 266 3.0 7.0 0.00 0.00 0.00 86 1006.2
20260508054224 31 252 3.0 6.0 0.00 0.00 0.00 86 1006.4
20260508053720 31 234 3.0 8.0 0.00 0.00 0.00 86 1006.4
20260508053220 31 254 3.0 8.0 0.00 0.00 0.00 86 1006.2
20260508052720 31 254 2.0 5.0 0.00 0.00 0.00 85 1006.4
20260508052217 31 273 2.0 4.0 0.00 0.00 0.00 85 1006.4
20260508051717 31 275 2.0 4.0 0.00 0.00 0.00 85 1006.5
20260508051212 32 273 1.0 4.0 0.00 0.00 0.00 85 1006.5
20260508050712 32 263 1.0 3.0 0.00 0.00 0.00 85 1006.5
20260508050212 32 263 1.0 3.0 0.00 0.00 0.00 84 1006.6
20260508045714 32 263 1.0 3.0 0.00 0.00 0.00 84 1006.5
20260508045210 32 263 1.0 3.0 0.00 0.00 0.00 84 1006.5
20260508044709 32 263 1.0 3.0 0.00 0.00 0.00 83 1006.5
20260508044434 32 263 2.0 4.0 0.00 0.00 0.00 83 1006.4
20260508043711 32 263 2.0 4.0 0.00 0.00 0.00 83 1006.5
20260508043209 32 264 3.0 4.0 0.00 0.00 0.00 83 1006.4
20260508042933 32 252 3.0 4.0 0.00 0.00 0.00 83 1006.5
20260508042213 32 262 2.0 4.0 0.00 0.00 0.00 83 1006.4
20260508041712 32 263 2.0 3.0 0.00 0.00 0.00 82 1006.5
20260508041206 32 263 2.0 4.0 0.00 0.00 0.00 82 1006.5
20260508040706 33 263 2.0 4.0 0.00 0.00 0.00 81 1006.2
20260508040426 33 263 2.0 4.0 0.00 0.00 0.00 81 1006.4
20260508035705 33 263 2.0 3.0 0.00 0.00 0.00 81 1006.4
20260508035209 32 263 2.0 4.0 0.00 0.00 0.00 82 1006.5
20260508034708 32 263 2.0 6.0 0.00 0.00 0.00 82 1006.5
20260508034205 32 264 3.0 6.0 0.00 0.00 0.00 81 1006.5
20260508033700 32 253 3.0 4.0 0.00 0.00 0.00 81 1006.5
20260508033200 32 253 3.0 8.0 0.00 0.00 0.00 82 1006.5
20260508032704 32 253 3.0 8.0 0.00 0.00 0.00 83 1006.6
20260508032201 32 261 3.0 4.0 0.00 0.00 0.00 81 1006.6
20260508031659 33 257 3.0 7.0 0.00 0.00 0.00 80 1006.6
20260508031200 33 252 3.0 7.0 0.00 0.00 0.00 80 1006.6
20260508030700 33 252 3.0 6.0 0.00 0.00 0.00 81 1006.6
20260508030159 33 262 3.0 6.0 0.00 0.00 0.00 83 1006.6
20260508025700 33 263 3.0 7.0 0.00 0.00 0.00 81 1006.5
20260508025425 34 247 3.0 7.0 0.00 0.00 0.00 79 1006.5
20260508024656 34 254 3.0 7.0 0.00 0.01 0.00 78 1006.5
20260508024142 34 255 4.0 7.0 0.00 0.01 0.00 79 1006.5
20260508023642 34 254 3.0 7.0 0.00 0.01 0.00 77 1006.6
20260508023142 34 266 3.0 7.0 0.00 0.01 0.00 78 1006.6
20260508022903 34 263 3.0 7.0 0.00 0.01 0.00 78 1006.6
20260508022141 34 259 3.0 8.0 0.00 0.01 0.00 77 1006.6
20260508021909 34 263 3.0 8.0 0.00 0.01 0.00 77 1006.6
20260508021141 34 273 3.0 6.0 0.00 0.01 0.00 77 1006.6
20260508020638 33 306 3.0 6.0 0.00 0.01 0.00 78 1006.6
20260508020403 33 266 2.0 6.0 0.00 0.01 0.00 77 1006.6
20260508015635 33 273 2.0 4.0 0.00 0.01 0.00 79 1006.5
20260508015135 34 263 2.0 4.0 0.00 0.01 0.00 78 1006.5
20260508014636 34 258 2.0 4.0 0.00 0.01 0.00 79 1006.4
20260508014135 34 259 2.0 4.0 0.00 0.01 0.00 78 1006.4
20260508013634 34 269 2.0 5.0 0.00 0.01 0.00 77 1006.4
20260508013134 35 265 2.0 5.0 0.00 0.01 0.00 75 1006.2
20260508012627 35 284 2.0 4.0 0.00 0.01 0.00 74 1006.2
20260508012127 35 261 2.0 4.0 0.00 0.01 0.00 74 1006.2
20260508011627 35 260 3.0 4.0 0.00 0.01 0.00 75 1006.1
20260508011346 35 263 3.0 5.0 0.00 0.01 0.00 76 1006.2
20260508010627 35 249 3.0 6.0 0.00 0.01 0.00 76 1006.1
20260508010127 35 254 3.0 6.0 0.00 0.01 0.00 73 1006.1
20260508005628 35 254 3.0 5.0 0.00 0.01 0.00 72 1006.1
20260508005127 35 253 2.0 4.0 0.00 0.01 0.00 73 1006.0
20260508004628 36 252 2.0 3.0 0.00 0.01 0.00 71 1005.9
20260508004123 36 252 2.0 4.0 0.00 0.01 0.00 71 1005.9
20260508003846 36 252 2.0 4.0 0.00 0.01 0.00 70 1005.8
20260508003124 37 252 2.0 4.0 0.00 0.01 0.00 69 1005.7
20260508002624 37 251 2.0 4.0 0.00 0.01 0.00 68 1005.7
20260508002123 38 251 2.0 4.0 0.00 0.02 0.00 70 1005.7
20260508001623 39 249 3.0 7.0 0.00 0.02 0.00 68 1005.8
20260508001349 40 253 3.0 7.0 0.00 0.03 0.00 63 1005.7
20260508000623 40 269 4.0 9.0 0.00 0.04 0.00 63 1005.6
20260508000124 40 254 4.0 9.0 0.00 0.05 0.00 62 1005.6
20260507235846 41 268 4.0 9.0 0.00 0.05 0.00 59 1005.6
20260507235124 41 273 3.0 9.0 0.00 0.06 0.00 62 1005.7
20260507234624 41 252 3.0 8.0 0.00 0.06 0.00 61 1005.7
20260507234123 41 264 3.0 9.0 0.00 0.07 0.00 58 1005.7
20260507233623 42 247 4.0 9.0 0.00 0.07 0.00 56 1005.7
20260507233123 42 244 3.0 9.0 0.00 0.07 0.00 57 1005.7
20260507232621 43 227 4.0 11.0 0.00 0.07 0.00 54 1005.7
20260507232122 43 328 4.0 11.0 0.00 0.07 0.00 52 1005.7
20260507231619 44 239 4.0 10.0 0.00 0.08 0.00 54 1005.7
20260507231119 44 213 4.0 11.0 0.00 0.08 0.00 51 1005.8
20260507230620 44 250 5.0 13.0 0.00 0.08 0.00 52 1005.7
20260507230119 44 266 5.0 13.0 0.00 0.08 0.00 52 1005.7
20260507225617 44 310 4.0 13.0 0.00 0.08 0.00 51 1005.7
20260507225118 44 233 5.0 13.0 0.00 0.08 0.00 51 1005.7
20260507224617 44 214 5.0 14.0 0.00 0.08 0.00 52 1005.7
20260507224339 45 264 5.0 14.0 0.00 0.08 0.00 49 1005.7
20260507223617 45 269 6.0 13.0 0.00 0.08 0.00 50 1005.6
20260507223118 45 280 7.0 15.0 0.00 0.09 0.00 49 1005.6
20260507222617 45 252 7.0 17.0 0.00 0.09 0.00 50 1005.5
20260507222118 45 285 6.0 19.0 0.00 0.10 0.00 52 1005.6
20260507221612 45 279 7.0 19.0 0.00 0.11 0.00 49 1005.6
20260507221321 46 265 7.0 16.0 0.00 0.11 0.00 48 1005.5
20260507220556 47 242 7.0 14.0 0.00 0.11 0.00 49 1005.6
20260507220050 46 44 7.0 14.0 0.00 0.12 0.00 49 1005.5
20260507215543 46 269 6.0 14.0 0.00 0.12 0.00 49 1005.6
20260507215033 45 293 5.0 14.0 0.00 0.12 0.00 50 1005.5
20260507214527 46 318 6.0 16.0 0.00 0.12 0.00 49 1005.4
20260507214020 46 269 7.0 16.0 0.00 0.12 0.00 49 1005.4
20260507213511 46 333 7.0 15.0 0.00 0.13 0.00 49 1005.4
20260507213221 47 280 7.0 15.0 0.00 0.14 0.00 47 1005.4
20260507212459 47 313 6.0 12.0 0.00 0.14 0.00 51 1005.3
20260507211955 47 26 7.0 18.0 0.00 0.14 0.00 47 1005.3
20260507211716 47 311 7.0 18.0 0.00 0.14 0.00 46 1005.2
20260507210955 47 355 7.0 16.0 0.00 0.14 0.00 47 1005.2
20260507210456 47 239 10.0 20.0 0.00 0.14 0.00 45 1005.2
20260507210218 49 256 10.0 20.0 0.00 0.14 0.00 43 1005.1
20260507205455 51 246 9.0 19.0 0.00 0.14 0.00 43 1005.1
20260507204955 50 210 11.0 24.0 0.00 0.14 0.00 43 1005.1
20260507204456 49 236 11.0 24.0 0.00 0.14 0.00 42 1005.1
20260507203955 49 256 10.0 20.0 0.00 0.15 0.00 41 1005.1
20260507203456 51 228 10.0 21.0 0.00 0.15 0.00 45 1005.0
20260507202957 51 239 10.0 21.0 0.00 0.15 0.00 45 1004.9
20260507202456 50 249 9.0 21.0 0.00 0.15 0.00 46 1004.9
20260507202224 48 260 8.0 18.0 0.00 0.15 0.00 45 1005.0
20260507201717 48 234 9.0 18.0 0.00 0.16 0.00 45 1005.0
20260507200950 48 272 11.0 22.0 0.00 0.16 0.00 43 1004.9
20260507200440 49 253 11.0 22.0 0.00 0.16 0.00 46 1004.9
20260507200153 49 268 11.0 24.0 0.00 0.16 0.00 46 1005.0
20260507195706 48 250 10.0 24.0 0.00 0.17 0.00 42 1005.0
20260507194918 49 188 10.0 22.0 0.00 0.18 0.00 44 1005.0
20260507193906 50 233 11.0 23.0 0.00 0.18 0.00 40 1005.1
20260507193356 51 264 11.0 23.0 0.00 0.18 0.00 41 1005.1
20260507192850 50 255 10.0 18.0 0.00 0.19 0.00 41 1005.1
20260507192343 49 237 10.0 19.0 0.00 0.19 0.00 44 1005.2
20260507191834 50 299 10.0 19.0 0.00 0.19 0.00 45 1005.1
20260507191552 49 244 11.0 20.0 0.00 0.19 0.00 42 1005.3
20260507190822 49 250 11.0 25.0 0.00 0.20 0.00 42 1005.3
20260507190313 51 220 10.0 25.0 0.00 0.20 0.00 41 1005.3
20260507185806 50 263 10.0 25.0 0.00 0.20 0.00 43 1005.2
20260507185300 48 271 11.0 25.0 0.00 0.20 0.00 43 1005.3
20260507185018 48 271 11.0 21.0 0.00 0.20 0.00 44 1005.2
20260507184243 48 257 10.0 22.0 0.00 0.21 0.00 46 1005.4
20260507183737 48 282 10.0 22.0 0.00 0.21 0.00 46 1005.3
20260507183228 49 257 8.0 21.0 0.00 0.21 0.00 46 1005.3
20260507182443 51 212 10.0 24.0 0.00 0.23 0.00 40 1005.3
20260507181706 51 271 10.0 19.0 0.00 0.23 0.00 44 1005.2
20260507181200 49 258 9.0 18.0 0.00 0.24 0.00 47 1005.4
20260507180654 49 223 8.0 17.0 0.00 0.25 0.00 45 1005.4
20260507180144 49 278 9.0 21.0 0.00 0.26 0.00 44 1005.4
20260507175638 50 251 8.0 21.0 0.00 0.26 0.00 43 1005.3
20260507175134 49 267 8.0 26.0 0.00 0.27 0.00 44 1005.2
20260507174621 49 250 8.0 26.0 0.00 0.27 0.00 46 1005.3
20260507174115 49 290 8.0 17.0 0.00 0.27 0.00 44 1005.3
20260507173610 49 267 8.0 17.0 0.00 0.27 0.00 47 1005.4
20260507173101 49 298 11.0 26.0 0.00 0.28 0.00 48 1005.3
20260507172554 48 284 12.0 26.0 0.00 0.28 0.00 45 1005.4
20260507172047 49 227 9.0 23.0 0.00 0.29 0.00 46 1005.5
20260507171538 49 243 7.0 19.0 0.00 0.29 0.00 48 1005.5
20260507171032 48 256 7.0 20.0 0.00 0.30 0.00 49 1005.5
20260507170526 48 274 9.0 20.0 0.00 0.31 0.00 48 1005.8
20260507170016 47 228 9.0 20.0 0.00 0.33 0.00 52 1005.7
20260507165510 47 236 7.0 20.0 0.00 0.34 0.00 53 1005.8
20260507165227 47 312 7.0 15.0 0.00 0.36 0.00 48 1005.8
20260507164505 47 278 8.0 20.0 0.00 0.37 0.00 51 1005.9
20260507164009 46 260 9.0 20.0 0.00 0.38 0.00 52 1006.0
20260507163505 46 279 9.0 18.0 0.00 0.40 0.00 55 1006.1
20260507163005 46 249 11.0 23.0 0.00 0.42 0.00 54 1006.2
20260507162503 46 238 12.0 23.0 0.00 0.42 0.00 52 1006.4
20260507162003 46 252 11.0 21.0 0.00 0.44 0.00 51 1006.4
20260507161002 46 252 11.0 21.0 0.00 0.46 0.00 51 1006.4
20260507160503 46 273 11.0 21.0 0.00 0.47 0.00 49 1006.4
20260507160003 46 240 10.0 21.0 0.00 0.48 0.00 54 1006.4
20260507155503 46 226 9.0 16.0 0.00 0.49 0.00 53 1006.5
20260507155002 45 231 9.0 17.0 0.00 0.50 0.00 56 1006.5
20260507154503 45 247 10.0 19.0 0.00 0.51 0.00 51 1006.6
20260507153959 45 225 10.0 21.0 0.00 0.51 0.00 55 1006.6
20260507153458 46 286 10.0 21.0 0.00 0.52 0.00 50 1006.7
20260507152959 46 241 10.0 20.0 0.00 0.54 0.00 49 1006.7
20260507152459 46 281 10.0 23.0 0.00 0.54 0.00 51 1006.8
20260507151958 47 297 11.0 23.0 0.00 0.56 0.00 52 1006.8
20260507151459 47 277 12.0 22.0 0.00 0.57 0.00 51 1006.7
20260507150958 47 273 11.0 25.0 0.00 0.58 0.00 51 1006.7
20260507150459 47 275 10.0 26.0 0.00 0.60 0.00 51 1006.7
20260507145958 47 247 10.0 26.0 0.00 0.61 0.00 50 1006.7
20260507145458 46 266 9.0 21.0 0.00 0.62 0.00 50 1006.7
20260507144959 47 255 9.0 19.0 0.00 0.63 0.00 54 1006.6
20260507144457 45 288 10.0 20.0 0.00 0.64 0.00 51 1006.7
20260507143956 46 208 8.0 20.0 0.00 0.65 0.00 55 1006.7
20260507143724 46 317 10.0 24.0 0.00 0.66 0.00 54 1006.7
20260507142957 45 231 10.0 24.0 0.00 0.67 0.00 57 1006.8
20260507142457 46 209 8.0 17.0 0.00 0.68 0.00 58 1006.7
20260507141957 45 301 8.0 18.0 0.00 0.70 0.00 58 1006.8
20260507141457 45 252 7.0 18.0 0.00 0.71 0.00 56 1006.8
20260507140958 45 259 6.0 15.0 0.00 0.73 0.00 57 1006.6
20260507140458 44 291 6.0 15.0 0.00 0.74 0.00 63 1006.7
20260507135958 44 329 7.0 18.0 0.00 0.75 0.00 59 1006.6
20260507135717 43 304 6.0 18.0 0.00 0.76 0.00 61 1006.7
20260507134956 43 246 7.0 18.0 0.00 0.77 0.00 61 1006.7
20260507134456 42 332 8.0 18.0 0.00 0.77 0.00 60 1006.7
20260507133956 42 329 9.0 19.0 0.00 0.78 0.00 66 1006.7
20260507133457 42 269 9.0 19.0 0.00 0.79 0.00 65 1006.7
20260507133221 41 342 9.0 20.0 0.00 0.80 0.00 65 1006.8
20260507131957 41 282 8.0 21.0 0.00 0.81 0.00 72 1006.8
20260507131457 41 273 6.0 20.0 0.00 0.82 0.00 70 1006.9
20260507130957 41 305 7.0 18.0 0.00 0.83 0.00 72 1006.8
20260507130456 40 290 6.0 15.0 0.00 0.84 0.00 74 1006.8
20260507125956 40 232 6.0 15.0 0.00 0.86 0.00 75 1006.8
20260507125456 39 315 6.0 12.0 0.00 0.88 0.00 75 1006.7
20260507125215 39 256 6.0 15.0 0.00 0.89 0.00 76 1006.8
20260507124457 38 279 7.0 15.0 0.00 0.90 0.00 74 1006.7
20260507124228 38 320 7.0 17.0 0.00 0.91 0.00 75 1006.6
20260507123446 38 337 7.0 17.0 0.00 0.92 0.00 75 1006.6
20260507122940 38 347 6.0 14.0 0.00 0.93 0.00 78 1006.8
20260507122705 37 233 8.0 19.0 0.00 0.94 0.00 80 1006.7
20260507121941 37 289 8.0 26.0 0.00 0.95 0.00 78 1006.7
20260507121441 37 294 7.0 26.0 0.00 0.96 0.00 80 1006.7